NanoFF B

operational
NORAD ID: 58755 Int'l Des: 2023-185 Owner: TUB Country: D
LEOCIRCULARRETROGRADESSO

About NanoFF B

Description loading...

Live Position

Loading 3D Globe...

Upcoming Passes

Altitude History

Altitude vs Time

uPlot chart will show altitude changes over time

Two-Line Element Set

1 58755U 23185S 26062.16362587 .00004364 00000-0 26141-3 0 9997
2 58755 97.5379 131.1337 0011269 314.8282 45.2031 15.11472638117853
Epoch: Mar 3, 2026 • Age: 13 hours

Current Status

Altitude 546.1 km
Velocity 7.59 km/s
Sub-Earth Point -56.79°S, 143.68°E
Launch Date Dec 1, 2023
Age 2.2 years
Type other

Technical Details

Classification Payload
Mass 2.70 kg
Dry Mass 2.70 kg
Total Mass 2.70 kg
Length 0.20 m
Diameter 0.10 m
Span 0.20 m
Shape Box
Manufacturer TUB
Bus Type Cubesat 2U
Phase Status In Orbit
Owner/State TUB/D

Large Constellations

Loading constellations...